Location: Washington
(38.8950°N, 77.0370°W)
Time: 01:30:01
(UTC-04:00)

Amateur Radio Satellites - All Passes

Search period start: 24 April 2017 01:00
Search period end: 25 April 2017 01:00
Location: Washington, 38.8950°N, 77.0370°W

Satellite Date Start Highest point End Downlink Frequencies (MHz)
Time Altitude Azimuth
FO-29 24 Apr 01:01:40 01:04:59 17° 296° (WNW) 01:08:22 435.910
POLYITAN 1 24 Apr 01:05:31 01:09:43 81° 282° (WNW) 01:13:54 437.675
QB50P2 24 Apr 01:11:59 01:16:08 62° 286° (WNW) 01:20:16 145.880/145.840
DX 1 24 Apr 01:18:09 01:22:32 87° 78° (ENE) 01:26:57 434.975-435.025
AIST 2D 24 Apr 01:37:23 01:39:02 13° 293° (WNW) 01:40:42 435.315
NANOSAT C BR1 24 Apr 01:37:30 01:41:21 37° 288° (WNW) 01:45:12 145.865
SPROUT 24 Apr 01:44:31 01:47:37 19° 266° (W) 01:50:45 437.525
BUGSAT 1 24 Apr 01:48:31 01:52:33 79° 102° (ESE) 01:56:33 437.445
Gurwin Techsat 1B 24 Apr 01:50:13 01:53:07 15° 91° (E) 01:55:59 435.225
VELOX 1 24 Apr 01:53:57 01:56:35 15° 268° (W) 01:59:14 145.980
EO-79 24 Apr 02:03:59 02:06:52 18° 293° (WNW) 02:09:44 145.935-145.965
BEESAT 24 Apr 02:07:56 02:11:00 17° 64° (ENE) 02:14:04 436.000
50 SAT 24 Apr 02:08:26 02:09:38 11° 268° (W) 02:10:50 437.505
DUCHIFAT 1 24 Apr 02:09:52 02:12:47 19° 293° (WNW) 02:15:43 145.980
Oscar 19 24 Apr 02:12:59 02:17:56 43° 99° (E) 02:22:51 437.125/150
UKube-1 24 Apr 02:29:05 02:32:26 22° 265° (W) 02:35:49 .
MOZHAYETS 4 24 Apr 02:31:02 02:32:56 13° 63° (ENE) 02:34:51
PCSat 24 Apr 02:35:45 02:40:17 28° 108° (ESE) 02:44:51 145.827
ITUPSAT 1 24 Apr 02:44:45 02:49:09 39° 71° (ENE) 02:53:35 437.325
AO-7 24 Apr 03:19:00 03:24:26 19° 92° (E) 03:29:50 .
Gurwin Techsat 1B 24 Apr 03:28:12 03:33:28 64° 287° (WNW) 03:38:43 435.225
ITAMSAT 1 24 Apr 03:32:38 03:36:25 20° 94° (E) 03:40:13 435.822/435.867
BEESAT 24 Apr 03:43:47 03:48:21 49° 260° (W) 03:52:59 436.000
Oscar 19 24 Apr 03:52:58 03:56:57 23° 295° (WNW) 04:00:55 437.125/150
MOZHAYETS 4 24 Apr 04:05:02 04:09:31 63° 259° (WSW) 04:14:04
NO-84 24 Apr 04:15:40 04:18:31 64° 43° (NE) 04:21:19 435.350 FM
PCSat 24 Apr 04:18:27 04:23:29 39° 305° (NW) 04:28:34 145.827
ITUPSAT 1 24 Apr 04:23:37 04:27:06 20° 266° (W) 04:30:36 437.325
KKS-1 24 Apr 04:39:57 04:44:19 55° 73° (ENE) 04:48:42 437.445
YUBILEINY 24 Apr 04:40:31 04:48:42 49° 89° (E) 04:56:56 435.215
CUBESAT XI-V 24 Apr 04:47:29 04:52:01 59° 74° (ENE) 04:56:37 437.345
AO-7 24 Apr 05:09:41 05:18:02 84° 289° (WNW) 05:26:22 .
ITAMSAT 1 24 Apr 05:11:10 05:16:05 45° 289° (WNW) 05:20:58 435.822/435.867
STARS 24 Apr 05:20:25 05:24:47 66° 74° (ENE) 05:29:10 437.465
DOVE 4 24 Apr 06:10:13 06:13:42 21° 92° (E) 06:17:01 437.250
KKS-1 24 Apr 06:19:11 06:21:11 13° 268° (W) 06:23:12 437.445
RS-15 24 Apr 06:20:13 06:27:43 19° 97° (E) 06:35:18 29.354- 29.394
CUBESAT XI-V 24 Apr 06:27:48 06:29:46 12° 270° (W) 06:31:45 437.345
XW-2F 24 Apr 06:28:52 06:31:27 17° 94° (E) 06:34:01 145.980 - 146.000
YUBILEINY 24 Apr 06:37:58 06:45:40 35° 288° (WNW) 06:53:27 435.215
NUDT-PHONESAT 24 Apr 06:49:10 06:52:16 25° 96° (E) 06:55:21 437.300
SO-50 24 Apr 06:58:35 07:02:43 33° 114° (ESE) 07:06:51 436.795
STARS 24 Apr 07:00:55 07:01:31 10° 269° (W) 07:02:08 437.465
AO-7 24 Apr 07:04:19 07:09:36 19° 308° (NW) 07:14:54 .
XW-2D 24 Apr 07:15:29 07:19:18 76° 103° (ESE) 07:23:06 145.860 - 145.880
XW-2B 24 Apr 07:22:20 07:26:09 90° 38° (NE) 07:29:58 145.730 - 145.750
M-CUBED/EXP-1 PRIME 24 Apr 07:24:12 07:28:44 81° 72° (ENE) 07:33:26 437.505
STRAND 1 24 Apr 07:24:25 07:29:24 56° 73° (ENE) 07:34:24 437.568
HO-68 24 Apr 07:29:38 07:34:54 21° 93° (E) 07:40:09 435.675
LilacSat-2 24 Apr 07:29:48 07:33:37 67° 284° (WNW) 07:37:26 437.200
XW-2C 24 Apr 07:34:09 07:37:54 62° 285° (WNW) 07:41:40 145.795 - 145.815
CUTE-I 24 Apr 07:36:19 07:41:40 88° 105° (ESE) 07:46:58 437.470
KAITUO 1B 24 Apr 07:39:10 07:42:54 68° 284° (WNW) 07:46:40 145.475/437.950
XW-2A 24 Apr 07:46:27 07:48:41 17° 94° (E) 07:50:54 145.665 - 145.685
DOVE 4 24 Apr 07:47:16 07:51:30 34° 290° (WNW) 07:55:29 437.250
XW-2F 24 Apr 08:02:19 08:05:35 28° 289° (WNW) 08:08:53 145.980 - 146.000
NUDT-PHONESAT 24 Apr 08:23:19 08:26:01 19° 291° (WNW) 08:28:43 437.300
RS-15 24 Apr 08:26:11 08:38:11 82° 117° (ESE) 08:50:37 29.354- 29.394
SO-50 24 Apr 08:39:15 08:43:12 27° 311° (NW) 08:47:07 436.795
ZACube-1 24 Apr 08:42:06 08:43:48 12° 91° (E) 08:45:32 437.345
CUTE 1.7 + AOD 2 24 Apr 08:45:55 08:50:14 82° 283° (WNW) 08:54:31 437.475
AO-73 24 Apr 08:50:18 08:52:30 14° 92° (E) 08:54:42 145.935
AAUSAT CUBESAT 2 24 Apr 08:53:06 08:56:57 34° 97° (E) 09:00:46 437.432
Tancredo 1 24 Apr 08:54:05 08:56:41 25° 133° (SE) 08:59:18 437.200
ISS 24 Apr 08:54:12 08:56:39 20° 131° (SE) 08:59:07 437.550
STRAND 1 24 Apr 09:05:50 09:08:54 16° 268° (W) 09:11:59 437.568
Oscar 11 24 Apr 09:08:47 09:11:57 19° 94° (E) 09:15:05 .
SEEDS 24 Apr 09:11:37 09:15:50 64° 284° (WNW) 09:20:02 437.485
UWE-3 24 Apr 09:14:12 09:18:17 53° 100° (E) 09:22:26 435.000/436.395/437.385
HO-68 24 Apr 09:15:59 09:23:07 67° 290° (WNW) 09:30:13 435.675
TIGRISAT 24 Apr 09:16:25 09:18:37 14° 65° (ENE) 09:20:48 435.000
XW-2A 24 Apr 09:18:45 09:21:24 22° 289° (WNW) 09:24:03 145.665 - 145.685
CUTE-I 24 Apr 09:19:05 09:20:55 12° 301° (WNW) 09:22:45 437.470
CUBEBUG 2 24 Apr 09:21:14 09:25:23 73° 284° (WNW) 09:29:34 437.445
FO-29 24 Apr 09:27:07 09:31:51 22° 66° (ENE) 09:36:12 435.910
UNISAT 6 24 Apr 09:35:16 09:38:47 24° 69° (ENE) 09:42:15 437.425
PRISM 24 Apr 09:54:13 09:58:18 66° 75° (ENE) 10:02:27 437.425
OBJECT BX 24 Apr 09:54:37 09:55:33 11° 92° (E) 09:56:30 145.990 - 145.960
DELFI C3 24 Apr 10:03:34 10:06:41 21° 95° (E) 10:09:46 145.870
ZACube-1 24 Apr 10:16:16 10:20:21 50° 286° (WNW) 10:24:28 437.345
AO-73 24 Apr 10:24:56 10:28:55 44° 287° (WNW) 10:32:59 145.935
AAUSAT CUBESAT 2 24 Apr 10:29:13 10:32:08 19° 293° (WNW) 10:35:03 437.432
Tancredo 1 24 Apr 10:29:44 10:32:32 30° 329° (NNW) 10:35:20 437.200
ISS 24 Apr 10:29:52 10:32:57 39° 327° (NNW) 10:36:02 437.550
AIST 2D 24 Apr 10:38:22 10:39:16 11° 66° (ENE) 10:40:09 435.315
RS-15 24 Apr 10:41:23 10:52:11 35° 323° (NW) 11:03:12 29.354- 29.394
Oscar 11 24 Apr 10:44:13 10:48:07 34° 289° (WNW) 10:52:02 .
TIGRISAT 24 Apr 10:50:33 10:54:52 52° 260° (W) 10:59:08 435.000
UWE-3 24 Apr 10:52:32 10:54:19 12° 295° (WNW) 10:56:05 435.000/436.395/437.385
NANOSAT C BR1 24 Apr 10:55:18 10:56:35 11° 64° (ENE) 10:57:51 145.865
HO-68 24 Apr 11:06:51 11:09:30 12° 308° (NW) 11:12:09 435.675
LO-87 24 Apr 11:07:54 11:08:45 11° 91° (E) 11:09:37 145.935 - 145.965
FO-29 24 Apr 11:10:09 11:16:37 55° 259° (W) 11:22:21 435.910
UNISAT 6 24 Apr 11:11:31 11:15:21 28° 263° (W) 11:19:08 437.425
EO-79 24 Apr 11:18:58 11:22:18 23° 69° (ENE) 11:25:37 145.935-145.965
DUCHIFAT 1 24 Apr 11:24:29 11:27:41 22° 68° (ENE) 11:30:53 145.980
PCSat 24 Apr 11:24:38 11:28:37 20° 47° (NE) 11:32:34 145.827
OBJECT BX 24 Apr 11:25:58 11:29:26 42° 286° (WNW) 11:32:54 145.990 - 145.960
O/OREOS (USA 219) 24 Apr 11:33:49 11:38:22 71° 292° (WNW) 11:42:59 437.305
DELFI C3 24 Apr 11:38:03 11:41:24 26° 290° (WNW) 11:44:44 145.870
ESTCUBE 1 24 Apr 11:42:18 11:45:32 19° 94° (E) 11:48:45 437.505/2401.250
POLYITAN 1 24 Apr 11:56:23 12:00:33 62° 75° (ENE) 12:04:43 437.675
QB50P2 24 Apr 12:02:45 12:06:59 81° 76° (ENE) 12:11:14 145.880/145.840
AIST 2D 24 Apr 12:08:48 12:12:05 39° 262° (W) 12:15:22 435.315
ISS 24 Apr 12:08:56 12:10:08 11° 346° (NNW) 12:11:19 437.550
NANOSAT C BR1 24 Apr 12:27:35 12:31:45 61° 259° (W) 12:35:56 145.865
BUGSAT 1 24 Apr 12:36:35 12:40:33 44° 73° (ENE) 12:44:30 437.445
LO-87 24 Apr 12:39:02 12:42:24 39° 287° (WNW) 12:45:43 145.935 - 145.965
AO-85 24 Apr 12:39:55 12:42:50 18° 112° (ESE) 12:45:40 145.980
EO-79 24 Apr 12:54:16 12:57:55 27° 264° (W) 13:01:32 145.935-145.965
DUCHIFAT 1 24 Apr 12:59:30 13:03:11 29° 263° (W) 13:06:51 145.980
RS-15 24 Apr 13:01:58 13:10:08 19° 357° (N) 13:18:16 29.354- 29.394
PCSat 24 Apr 13:07:04 13:12:27 63° 246° (WSW) 13:17:46 145.827
DX 1 24 Apr 13:08:45 13:11:29 16° 93° (E) 13:14:11 434.975-435.025
Gurwin Techsat 1B 24 Apr 13:09:43 13:13:44 22° 65° (ENE) 13:17:45 435.225
ESTCUBE 1 24 Apr 13:18:13 13:22:26 38° 289° (WNW) 13:26:37 437.505/2401.250
Oscar 19 24 Apr 13:28:27 13:33:28 55° 72° (ENE) 13:38:31 437.125/150
SPROUT 24 Apr 13:29:53 13:34:08 76° 102° (ESE) 13:38:22 437.525
50 SAT 24 Apr 13:30:38 13:33:59 44° 99° (E) 13:37:19 437.505
VELOX 1 24 Apr 13:42:55 13:47:21 74° 285° (WNW) 13:51:45 145.980
BUGSAT 1 24 Apr 14:13:59 14:16:06 14° 267° (W) 14:18:12 437.445
UKube-1 24 Apr 14:16:00 14:20:19 65° 101° (E) 14:24:35 .
AO-7 24 Apr 14:16:47 14:23:16 26° 56° (NE) 14:29:44 .
AO-85 24 Apr 14:18:55 14:22:58 40° 306° (NW) 14:26:49 145.980
BEESAT 2 24 Apr 14:41:17 14:44:18 21° 111° (ESE) 14:47:20 435.950
DX 1 24 Apr 14:43:43 14:47:49 41° 288° (WNW) 14:51:54 434.975-435.025
BEESAT 3 24 Apr 14:47:20 14:51:15 72° 119° (ESE) 14:55:13 437.485
Gurwin Techsat 1B 24 Apr 14:48:17 14:53:21 45° 261° (W) 14:58:26 435.225
ITUPSAT 1 24 Apr 14:49:08 14:50:05 10° 90° (E) 14:51:01 437.325
ITAMSAT 1 24 Apr 14:49:12 14:53:37 29° 67° (ENE) 14:58:02 435.822/435.867
YUBILEINY 24 Apr 14:52:45 14:59:14 22° 66° (ENE) 15:05:42 435.215
Oscar 19 24 Apr 15:09:56 15:13:06 16° 268° (W) 15:16:18 437.125/150
RS-15 24 Apr 15:17:57 15:28:28 31° 33° (NNE) 15:38:36 29.354- 29.394
Tancredo 1 24 Apr 15:20:33 15:23:11 25° 28° (NNE) 15:25:50 437.200
ISS 24 Apr 15:22:36 15:25:16 23° 27° (NNE) 15:27:55 437.550
SO-50 24 Apr 15:31:00 15:34:37 23° 48° (NE) 15:38:14 436.795
BEESAT 24 Apr 15:44:52 15:49:26 45° 99° (E) 15:53:59 436.000
UKube-1 24 Apr 15:54:26 15:55:46 11° 298° (WNW) 15:57:05 .
MOZHAYETS 4 24 Apr 16:01:20 16:05:27 32° 97° (E) 16:09:35
AO-7 24 Apr 16:07:03 16:15:18 71° 254° (WSW) 16:23:36 .
BEESAT 2 24 Apr 16:18:18 16:21:51 31° 308° (NW) 16:25:28 435.950
ITUPSAT 1 24 Apr 16:23:36 16:28:22 73° 286° (WNW) 16:33:08 437.325
BEESAT 3 24 Apr 16:27:38 16:29:19 12° 317° (NW) 16:31:00 437.485
ITAMSAT 1 24 Apr 16:28:19 16:32:57 33° 263° (W) 16:37:36 435.822/435.867
KKS-1 24 Apr 16:34:32 16:35:49 11° 91° (E) 16:37:07 437.445
CUBESAT XI-V 24 Apr 16:46:21 16:49:21 17° 92° (E) 16:52:19 437.345
YUBILEINY 24 Apr 16:48:10 16:56:55 76° 266° (W) 17:05:40 435.215
Tancredo 1 24 Apr 16:56:18 16:59:10 33° 224° (SW) 17:01:59 437.200
ISS 24 Apr 16:58:45 17:01:52 44° 223° (SW) 17:04:59 437.550
SO-50 24 Apr 17:11:00 17:15:12 39° 245° (WSW) 17:19:23 436.795
STARS 24 Apr 17:12:51 17:14:45 13° 92° (E) 17:16:38 437.465
DOVE 4 24 Apr 17:13:32 17:17:35 23° 67° (ENE) 17:21:37 437.250
CUTE-I 24 Apr 17:19:32 17:22:45 16° 62° (ENE) 17:25:58 437.470
BEESAT 24 Apr 17:23:35 17:26:51 19° 295° (WNW) 17:30:07 436.000
RS-15 24 Apr 17:30:38 17:42:58 86° 60° (ENE) 17:54:38 29.354- 29.394
MOZHAYETS 4 24 Apr 17:38:46 17:42:26 24° 292° (WNW) 17:46:05
XW-2D 24 Apr 17:55:42 17:58:56 28° 71° (ENE) 18:02:11 145.860 - 145.880
HO-68 24 Apr 17:59:14 18:03:01 15° 54° (NE) 18:06:47 435.675
XW-2B 24 Apr 18:02:24 18:05:46 33° 72° (ENE) 18:09:10 145.730 - 145.750
AO-7 24 Apr 18:07:09 18:09:22 11° 272° (W) 18:11:35 .
KKS-1 24 Apr 18:08:22 18:12:45 61° 286° (WNW) 18:17:06 437.445
LilacSat-2 24 Apr 18:10:14 18:13:49 45° 74° (ENE) 18:17:25 437.200
XW-2C 24 Apr 18:13:56 18:17:32 48° 74° (ENE) 18:21:09 145.795 - 145.815
KAITUO 1B 24 Apr 18:17:48 18:21:16 41° 74° (ENE) 18:24:46 145.475/437.950
CUBESAT XI-V 24 Apr 18:22:24 18:26:55 46° 287° (WNW) 18:31:25 437.345
XW-2F 24 Apr 18:41:11 18:44:53 75° 259° (WSW) 18:48:37 145.980 - 146.000
STARS 24 Apr 18:47:07 18:51:22 52° 287° (WNW) 18:55:36 437.465
YUBILEINY 24 Apr 18:48:48 18:52:06 13° 285° (WNW) 18:55:25 435.215
DOVE 4 24 Apr 18:49:52 18:54:55 45° 262° (W) 18:59:58 437.250
CUTE-I 24 Apr 18:56:55 19:02:14 65° 259° (WSW) 19:07:33 437.470
NUDT-PHONESAT 24 Apr 19:00:18 19:03:52 50° 261° (W) 19:07:27 437.300
XW-2D 24 Apr 19:30:43 19:33:09 17° 266° (W) 19:35:36 145.860 - 145.880
NO-84 24 Apr 19:32:57 19:35:13 15° 126° (SE) 19:37:23 435.350 FM
STRAND 1 24 Apr 19:36:55 19:40:43 21° 94° (E) 19:44:29 437.568
CUTE 1.7 + AOD 2 24 Apr 19:36:57 19:41:03 57° 75° (ENE) 19:45:12 437.475
XW-2B 24 Apr 19:38:00 19:40:04 14° 267° (W) 19:42:09 145.730 - 145.750
HO-68 24 Apr 19:42:29 19:49:37 81° 73° (ENE) 19:56:49 435.675
AAUSAT CUBESAT 2 24 Apr 19:42:30 19:45:29 20° 68° (ENE) 19:48:31 437.432
RS-15 24 Apr 19:45:08 19:53:46 24° 260° (W) 20:02:09 29.354- 29.394
LilacSat-2 24 Apr 19:47:30 19:48:20 11° 269° (W) 19:49:09 437.200
XW-2A 24 Apr 19:47:53 19:51:14 89° 101° (E) 19:54:37 145.665 - 145.685
KAITUO 1B 24 Apr 19:54:23 19:55:29 11° 269° (W) 19:56:36 145.475/437.950
SEEDS 24 Apr 20:01:30 20:05:39 71° 75° (ENE) 20:09:50 437.485
Oscar 11 24 Apr 20:03:29 20:05:35 13° 65° (ENE) 20:07:41 .
O/OREOS (USA 219) 24 Apr 20:06:52 20:10:02 18° 57° (ENE) 20:13:10 437.305
UWE-3 24 Apr 20:09:54 20:13:51 36° 72° (ENE) 20:17:43 435.000/436.395/437.385
CUBEBUG 2 24 Apr 20:17:33 20:21:58 77° 76° (ENE) 20:26:16 437.445
M-CUBED/EXP-1 PRIME 24 Apr 20:38:59 20:43:14 72° 106° (ESE) 20:47:07 437.505
JUGNU 24 Apr 20:40:13 20:42:03 11° 181° (S) 20:43:54 437.505
DELFI C3 24 Apr 20:49:40 20:50:52 11° 65° (ENE) 20:52:04 145.870
NO-84 24 Apr 21:09:00 21:12:33 49° 319° (NW) 21:15:48 435.350 FM
ZACube-1 24 Apr 21:10:21 21:14:35 80° 258° (WSW) 21:18:46 437.345
AO-85 24 Apr 21:12:10 21:13:45 12° 44° (NE) 21:15:23 145.980
STRAND 1 24 Apr 21:15:14 21:20:03 43° 289° (WNW) 21:24:51 437.568
CUTE 1.7 + AOD 2 24 Apr 21:16:15 21:17:14 11° 270° (W) 21:18:13 437.475
AAUSAT CUBESAT 2 24 Apr 21:17:03 21:20:44 31° 264° (W) 21:24:27 437.432
AO-73 24 Apr 21:18:40 21:22:52 70° 259° (WSW) 21:27:01 145.935
HO-68 24 Apr 21:33:45 21:38:03 17° 269° (W) 21:42:23 435.675
Oscar 11 24 Apr 21:37:04 21:41:15 52° 260° (W) 21:45:28 .
O/OREOS (USA 219) 24 Apr 21:45:18 21:49:40 44° 254° (WSW) 21:53:58 437.305
UWE-3 24 Apr 21:47:30 21:50:23 17° 266° (W) 21:53:14 435.000/436.395/437.385
SRMSAT 24 Apr 21:59:14 22:00:22 11° 174° (S) 22:01:31 437.500
OBJECT BX 24 Apr 22:02:01 22:05:35 61° 76° (ENE) 22:09:11 145.990 - 145.960
M-CUBED/EXP-1 PRIME 24 Apr 22:16:04 22:16:56 11° 304° (NW) 22:17:47 437.505
DELFI C3 24 Apr 22:21:15 22:25:08 54° 260° (W) 22:29:04 145.870
FO-29 24 Apr 22:21:34 22:24:53 17° 93° (E) 22:28:16 435.910
ESTCUBE 1 24 Apr 22:41:16 22:43:57 16° 65° (ENE) 22:46:39 437.505/2401.250
TIGRISAT 24 Apr 22:43:10 22:47:01 32° 97° (E) 22:50:52 435.000
AO-85 24 Apr 22:50:35 22:54:34 72° 240° (WSW) 22:58:43 145.980
BEESAT 2 24 Apr 23:00:44 23:02:14 12° 42° (NE) 23:03:45 435.950
UNISAT 6 24 Apr 23:03:25 23:07:39 61° 100° (E) 23:11:56 437.425
BEESAT 3 24 Apr 23:05:29 23:09:00 28° 51° (NE) 23:12:29 437.485
PRISM 24 Apr 23:11:49 23:15:57 62° 285° (WNW) 23:20:00 437.425
LO-87 24 Apr 23:13:15 23:16:50 60° 75° (ENE) 23:20:26 145.935 - 145.965
AIST 2D 24 Apr 23:35:57 23:38:00 15° 93° (E) 23:40:04 435.315
POLYITAN 1 24 Apr 23:45:00 23:45:56 11° 91° (E) 23:46:52 437.675
SRMSAT 24 Apr 23:47:00 23:48:36 11° 184° (S) 23:50:13 437.500
QB50P2 24 Apr 23:50:18 23:52:32 14° 92° (E) 23:54:45 145.880/145.840
50 SAT 25 Apr 00:03:23 00:05:22 15° 68° (ENE) 00:07:22 437.505
DX 1 25 Apr 00:03:57 00:06:00 13° 63° (ENE) 00:08:03 434.975-435.025
FO-29 25 Apr 00:05:14 00:10:16 52° 288° (WNW) 00:15:34 435.910
NANOSAT C BR1 25 Apr 00:13:36 00:16:51 22° 95° (E) 00:20:06 145.865
ESTCUBE 1 25 Apr 00:16:00 00:20:20 48° 261° (W) 00:24:43 437.505/2401.250
TIGRISAT 25 Apr 00:20:21 00:23:29 20° 292° (WNW) 00:26:39 435.000
SPROUT 25 Apr 00:21:40 00:25:47 47° 73° (ENE) 00:29:54 437.525
BEESAT 2 25 Apr 00:36:28 00:40:32 80° 241° (WSW) 00:44:33 435.950
VELOX 1 25 Apr 00:38:23 00:42:50 82° 76° (ENE) 00:47:19 145.980
EO-79 25 Apr 00:39:21 00:43:25 48° 99° (E) 00:47:28 145.935-145.965
UNISAT 6 25 Apr 00:42:23 00:43:51 12° 296° (WNW) 00:45:20 437.425
BEESAT 3 25 Apr 00:43:13 00:46:28 24° 248° (WSW) 00:49:41 437.485
DUCHIFAT 1 25 Apr 00:44:01 00:48:01 44° 99° (E) 00:51:59 145.980
